[[{"header":{"parameterUnit":"m.s-1","parameterCategory":1,"la1":30.2991,"la2":30.254,"lo1":-89.0895,"lo2":-89.0444,"dy":0.0017,"dx":0.0017,"nx":28,"ny":28,"refTime":"2024-04-03T09:00:00:Z","depth":0,"parameterNumber":2,"parameterNumberName":"U-component_of_WINDS"},"data":[0,0,0,0,0,0,0,0,0,0,0,0,0,0,0,0,0,0,0,0,0,0,0,0,0,0,0,0,0,0,0,0,0,0,0,0,0,0,0,0,0,0,0,0,0,0,0,0,0,0,0,0,0,0,0,0,0,0,5.3318,5.3319,0,5.3417,5.3418,5.3419,5.3386,5.3383,5.3381,5.3379,5.3481,5.3485,5.349,0,0,0,0,0,0,0,0,0,0,0,0,0,5.3102,5.3106,5.3318,5.3319,5.332,5.3417,5.3418,5.3419,5.3386,5.3383,5.3381,5.3378,5.3479,5.3485,5.349,0,0,0,0,0,0,0,0,0,0,0,0,0,5.3198,5.3107,5.3318,5.3315,5.3316,5.3416,5.3418,5.342,5.3386,5.3383,5.338,5.3377,5.3477,5.3484,5.3491,5.3599,0,0,5.3513,5.3516,0,0,0,0,0,0,0,0,5.3192,5.3206,5.3314,5.3316,5.3317,5.3385,5.3379,5.348,5.3387,5.336,5.3379,5.3375,5.3452,5.3461,5.3486,5.3604,5.3609,5.3513,5.3517,5.3521,5.3523,0,0,0,0,0,0,0,5.3186,5.3201,5.3357,5.3316,5.3317,5.331,5.332,5.3398,5.3423,5.3362,5.336,5.3372,5.3452,5.3479,5.3488,5.361,5.3513,5.3519,5.3524,5.3526,5.3825,5.3829,0,0,0,0,0,0,5.3178,5.3196,5.3354,5.336,5.3245,5.3316,5.3328,5.3367,5.3422,5.3427,5.3375,5.337,5.3469,5.348,5.3492,5.3624,5.352,5.3527,5.3531,5.3821,5.3826,5.383,0,0,0,0,0,0,5.3174,5.3193,5.335,5.3277,5.3297,5.3324,5.3368,5.337,5.3398,5.3431,5.3436,5.3398,5.3467,5.3482,5.3574,5.3627,5.353,5.3537,5.3817,5.3823,5.3828,5.3889,0,0,0,0,0,0,5.3168,5.3191,5.3232,5.3279,5.3301,5.3429,5.3371,5.3375,5.341,5.3405,5.3455,5.346,5.3465,5.3563,5.3581,5.3635,5.3542,5.3812,5.382,5.3826,5.3882,5.3896,5.3907,0,0,0,0,0,5.316,5.3245,5.3234,5.3254,5.3352,5.3432,5.3445,5.345,5.3415,5.3457,5.3478,5.3458,5.3619,5.3573,5.3592,5.365,5.3809,5.3818,5.3826,5.3876,5.3893,5.3907,0,0,0,0,0,0,5.3203,5.3251,5.324,5.3342,5.3384,5.3427,5.3479,5.3467,5.3519,5.3513,5.3516,5.3528,5.3623,5.3645,5.3594,5.3759,5.3709,5.3721,5.3741,5.3757,5.3769,5.3762,5.3548,0,0,0,0,0,5.3225,5.3285,5.3324,5.341,5.3432,5.3452,5.3487,5.3488,5.3531,5.3548,5.3577,5.362,5.368,5.372,5.3777,5.3885,5.3897,5.3935,5.3947,5.3957,5.3968,5.403,5.4048,5.3857,5.3857,5.3857,0,0,5.3269,5.3303,5.3341,5.342,5.3452,5.3516,5.3467,5.3536,5.3584,5.3559,5.3647,5.367,5.3719,5.382,5.3866,5.3842,5.4024,5.3968,5.3976,5.3981,5.404,5.4058,5.4074,5.3863,5.3862,5.3861,0,0,5.3383,5.3414,5.3491,5.3525,5.3575,5.3588,5.3607,5.3653,5.3667,5.3756,5.374,5.3797,5.39,5.3936,5.3968,5.4099,5.4083,5.4118,5.4184,5.4244,5.4259,5.4272,5.432,5.4337,5.4129,5.4129,5.4129,0,5.3432,5.3527,5.3531,5.3603,5.3639,5.362,5.3698,5.3731,5.3797,5.3823,5.3795,5.3926,5.3957,5.4068,5.41,5.4126,5.4149,5.4112,5.4256,5.427,5.4282,5.4328,5.4346,5.4133,5.4132,5.4132,5.4131,0,5.3586,5.3653,5.3708,5.3774,5.3816,5.389,5.3907,5.3949,5.3947,5.3964,5.4056,5.4094,5.4159,5.4185,5.4183,5.4297,5.4281,5.4255,5.4204,5.4304,5.4348,5.4365,5.4138,5.4137,5.4136,5.4135,0,0,5.3729,5.3797,5.3818,5.3848,5.3903,5.3955,5.4029,5.4094,5.4131,5.4178,5.4242,5.4331,5.4308,5.4344,5.4346,5.4399,5.4503,5.4367,5.4368,5.4392,5.4633,5.4652,5.4673,5.4493,5.4496,5.4499,5.4629,0,5.3848,5.3979,5.3986,5.4105,5.4167,5.4152,5.4217,5.4258,5.4277,5.4333,5.4354,5.4418,5.4382,5.4404,5.4455,5.4479,5.4551,5.447,5.4553,5.4556,5.4542,5.4695,5.4716,5.4836,5.4646,5.4649,5.4651,0,5.4004,5.4057,5.4183,5.4231,5.4258,5.4316,5.4377,5.4431,5.4479,5.4489,5.4531,5.4526,5.4604,5.4551,5.466,5.4604,5.4639,5.4656,5.4661,5.4669,5.4609,5.4708,5.4875,5.4893,5.4677,5.4675,5.4673,0,5.4097,5.42,5.4289,5.4315,5.4374,5.4416,5.4442,5.4486,5.4526,5.4579,5.4605,5.4667,5.4701,5.475,5.4763,5.4723,5.4872,5.482,5.4884,5.4883,5.4915,5.4913,5.5091,5.4937,5.4937,5.4936,5.4936,0,5.423,5.4308,5.4332,5.4386,5.4474,5.4482,5.4568,5.4592,5.4632,5.4692,5.4683,5.4739,5.4753,5.4812,5.4823,5.4912,5.4928,5.4939,5.4941,5.494,5.4939,5.4963,5.4955,5.4941,5.494,5.4939,5.4938,0,5.4349,5.4367,5.4464,5.4512,5.4526,5.4588,5.463,5.4683,5.4701,5.4778,5.4796,5.4825,5.4895,5.4913,5.4996,5.5004,5.511,5.5103,5.5093,5.5093,5.5157,5.5151,5.5356,5.5384,5.5211,5.5213,5.5214,0,5.4432,5.4492,5.4547,5.4587,5.4616,5.4679,5.472,5.4731,5.4774,5.4834,5.4881,5.495,5.5005,5.5119,5.5148,5.5212,5.5208,5.5275,5.5217,5.5216,5.521,5.5207,5.5214,5.5286,5.5288,5.529,5.5291,0,5.458,5.4587,5.4645,5.4708,5.4757,5.4807,5.4854,5.4888,5.4906,5.4955,5.5026,5.507,5.5156,5.5226,5.5291,5.5319,5.5309,5.5309,5.5328,5.5328,5.532,5.5326,5.5124,5.5304,5.5303,5.5302,5.5301,5.5301,5.4684,5.4737,5.4785,5.4851,5.4889,5.4934,5.4987,5.5013,5.5073,5.5144,5.5147,5.5226,5.5275,5.5362,5.5394,5.5457,5.5436,5.5463,5.547,5.5476,5.5482,5.531,5.5469,5.5468,5.5468,5.5468,5.5468,0,5.4832,5.4863,5.4924,5.4991,5.5044,5.503,5.5083,5.5128,5.5197,5.5244,5.5299,5.5383,5.5451,5.5487,5.5555,5.5598,5.5595,5.5616,5.5613,5.562,5.5496,5.5474,5.5617,5.5617,5.5617,5.5617,5.5617,5.5617,5.4915,5.5005,5.5018,5.5127,5.5157,5.5234,5.5266,5.5309,5.5346,5.544,5.5497,5.5519,5.5562,5.5633,5.5696,5.5705,5.5731,5.5754,5.576,5.5644,5.5628,5.5614,5.5593,5.5759,5.5759,5.5879,5.588,5.5881]},{"header":{"parameterUnit":"m.s-1","parameterCategory":1,"la1":30.2991,"la2":30.254,"lo1":-89.0895,"lo2":-89.0444,"dy":0.0017,"dx":0.0017,"nx":28,"ny":28,"refTime":"2024-04-03T09:00:00:Z","depth":0,"parameterNumber":3,"parameterNumberName":"V-component_of_WINDS"},"data":[0,0,0,0,0,0,0,0,0,0,0,0,0,0,0,0,0,0,0,0,0,0,0,0,0,0,0,0,0,0,0,0,0,0,0,0,0,0,0,0,0,0,0,0,0,0,0,0,0,0,0,0,0,0,0,0,0,0,-5.9364,-5.9363,0,-5.9296,-5.9295,-5.9294,-5.9215,-5.9214,-5.9212,-5.9211,-5.9139,-5.9139,-5.9138,0,0,0,0,0,0,0,0,0,0,0,0,0,-5.9421,-5.9421,-5.9364,-5.9363,-5.9362,-5.9296,-5.9295,-5.9294,-5.9215,-5.9213,-5.9212,-5.9211,-5.914,-5.9139,-5.9138,0,0,0,0,0,0,0,0,0,0,0,0,0,-5.9379,-5.9421,-5.9364,-5.9315,-5.931,-5.9296,-5.9295,-5.9294,-5.9215,-5.9213,-5.9212,-5.921,-5.914,-5.9139,-5.9138,-5.9167,0,0,-5.9134,-5.9134,0,0,0,0,0,0,0,0,-5.9382,-5.9377,-5.9323,-5.9318,-5.9312,-5.9262,-5.9289,-5.9251,-5.9216,-5.9251,-5.9211,-5.9209,-5.9182,-5.9177,-5.9168,-5.9163,-5.916,-5.9134,-5.9133,-5.9133,-5.9132,0,0,0,0,0,0,0,-5.9385,-5.938,-5.9337,-5.9322,-5.9316,-5.9295,-5.9287,-5.9282,-5.9227,-5.9248,-5.9242,-5.9235,-5.9178,-5.9169,-5.9166,-5.9159,-5.9134,-5.9133,-5.9132,-5.9132,-5.9172,-5.9173,0,0,0,0,0,0,-5.9395,-5.9383,-5.9339,-5.9335,-5.9343,-5.9295,-5.9286,-5.928,-5.9227,-5.9217,-5.9237,-5.9232,-5.9172,-5.9167,-5.9163,-5.9191,-5.9133,-5.9132,-5.9131,-5.917,-5.9172,-5.9174,0,0,0,0,0,0,-5.9397,-5.9392,-5.9342,-5.9357,-5.9349,-5.9296,-5.929,-5.928,-5.927,-5.9219,-5.9208,-5.9238,-5.9171,-5.9165,-5.9166,-5.9188,-5.9131,-5.913,-5.9168,-5.9171,-5.9173,-5.9249,0,0,0,0,0,0,-5.9399,-5.9393,-5.9405,-5.9358,-5.9349,-5.9347,-5.9291,-5.928,-5.9269,-5.9262,-5.9217,-5.9208,-5.9169,-5.9168,-5.9165,-5.9185,-5.9129,-5.9166,-5.9169,-5.9172,-5.9245,-5.9254,-5.9262,0,0,0,0,0,-5.9401,-5.9429,-5.9406,-5.9401,-5.9362,-5.9349,-5.9343,-5.9298,-5.9271,-5.9281,-5.9248,-5.9209,-5.9186,-5.9169,-5.9164,-5.9185,-5.9164,-5.9168,-5.9172,-5.9241,-5.9252,-5.9262,0,0,0,0,0,0,-5.9479,-5.9422,-5.9396,-5.9409,-5.9384,-5.9335,-5.9347,-5.9313,-5.9295,-5.9288,-5.9233,-5.9224,-5.9231,-5.9208,-5.919,-5.9208,-5.9169,-5.9173,-5.9223,-5.9234,-5.9243,-5.9247,-5.9128,0,0,0,0,0,-5.9498,-5.9493,-5.9443,-5.9459,-5.9449,-5.94,-5.9393,-5.936,-5.9332,-5.9321,-5.9288,-5.9261,-5.9247,-5.9239,-5.9224,-5.9241,-5.9229,-5.9253,-5.9262,-5.9269,-5.9272,-5.9277,-5.9286,-5.9187,-5.9187,-5.9187,0,0,-5.9536,-5.9505,-5.9505,-5.9474,-5.9451,-5.9446,-5.9392,-5.9389,-5.9384,-5.932,-5.9319,-5.9294,-5.926,-5.9269,-5.9271,-5.925,-5.9297,-5.9275,-5.9281,-5.9279,-5.9282,-5.9291,-5.93,-5.919,-5.9189,-5.9189,0,0,-5.9603,-5.958,-5.959,-5.9568,-5.9534,-5.9502,-5.9504,-5.946,-5.9441,-5.9439,-5.939,-5.9383,-5.9362,-5.9339,-5.9325,-5.9382,-5.9345,-5.9379,-5.9425,-5.943,-5.9438,-5.9444,-5.9462,-5.9469,-5.9382,-5.9382,-5.9383,0,-5.9655,-5.9646,-5.9599,-5.9599,-5.9586,-5.9529,-5.9538,-5.9519,-5.9482,-5.9473,-5.9451,-5.9421,-5.9395,-5.9396,-5.941,-5.9401,-5.94,-5.9383,-5.9441,-5.9447,-5.9452,-5.9468,-5.9476,-5.9387,-5.9386,-5.9386,-5.9385,0,-5.971,-5.9705,-5.9717,-5.9682,-5.9671,-5.9676,-5.9628,-5.9622,-5.9591,-5.956,-5.9558,-5.9524,-5.95,-5.9498,-5.9468,-5.9494,-5.9482,-5.9451,-5.941,-5.9466,-5.9481,-5.9487,-5.9393,-5.9391,-5.939,-5.9389,0,0,-5.9824,-5.9763,-5.9768,-5.9751,-5.9709,-5.9703,-5.9704,-5.9681,-5.9676,-5.9652,-5.965,-5.9633,-5.9603,-5.9587,-5.9553,-5.9558,-5.9602,-5.9525,-5.9524,-5.9539,-5.9626,-5.9648,-5.9657,-5.9578,-5.9579,-5.958,-5.9628,0,-5.9881,-5.988,-5.9838,-5.9848,-5.9841,-5.9787,-5.9787,-5.9761,-5.9732,-5.9721,-5.9688,-5.9676,-5.9639,-5.9629,-5.9631,-5.9596,-5.9619,-5.9593,-5.9573,-5.9573,-5.9581,-5.9665,-5.9688,-5.9736,-5.9634,-5.9635,-5.9635,0,-5.9948,-5.9928,-5.9938,-5.9894,-5.989,-5.9891,-5.9865,-5.9856,-5.9824,-5.9803,-5.9785,-5.9746,-5.9742,-5.9705,-5.9697,-5.968,-5.967,-5.9651,-5.9652,-5.9647,-5.9606,-5.9659,-5.975,-5.9756,-5.9644,-5.9644,-5.9643,0,-6.0027,-6.0003,-6.0005,-5.9992,-5.9942,-5.9944,-5.9922,-5.9889,-5.9877,-5.9855,-5.9846,-5.9823,-5.981,-5.9793,-5.9748,-5.9726,-5.9744,-5.9704,-5.9724,-5.9725,-5.9729,-5.9729,-5.9817,-5.9726,-5.9726,-5.9726,-5.9726,0,-6.0095,-6.0102,-6.0039,-6.0041,-6.0047,-5.9997,-6.0004,-5.9978,-5.9948,-5.9942,-5.9893,-5.9888,-5.9831,-5.9819,-5.9784,-5.9781,-5.9776,-5.9757,-5.9747,-5.976,-5.9762,-5.9751,-5.9745,-5.9728,-5.9728,-5.9727,-5.9727,0,-6.0183,-6.0142,-6.014,-6.0092,-6.008,-6.0087,-6.0045,-6.0043,-6.0012,-6.0004,-5.9999,-5.9949,-5.9931,-5.9886,-5.9857,-5.9833,-5.9839,-5.9823,-5.985,-5.9843,-5.9865,-5.9863,-5.9947,-5.9954,-5.9862,-5.9863,-5.9864,0,-6.0228,-6.0232,-6.0185,-6.0178,-6.0159,-6.0148,-6.0136,-6.0087,-6.0076,-6.0039,-6.0041,-6.002,-6.0,-5.9975,-5.9935,-5.9911,-5.9892,-5.9923,-5.9888,-5.99,-5.989,-5.9889,-5.9888,-5.9931,-5.9932,-5.9933,-5.9934,0,-6.0311,-6.029,-6.0275,-6.0252,-6.0239,-6.0219,-6.0196,-6.0192,-6.0137,-6.0127,-6.0109,-6.0094,-6.0064,-6.0042,-6.0013,-5.9989,-5.9951,-5.9945,-5.9948,-5.996,-5.9975,-5.9965,-5.9868,-5.9943,-5.9942,-5.9942,-5.9941,-5.9941,-6.0377,-6.0378,-6.0345,-6.0329,-6.0306,-6.0285,-6.0281,-6.0248,-6.0233,-6.0205,-6.0177,-6.0162,-6.0127,-6.0083,-6.0062,-6.0048,-6.0028,-6.0033,-6.0034,-6.0035,-6.004,-5.9979,-6.0042,-6.0042,-6.0042,-6.0041,-6.0041,0,-6.0456,-6.0432,-6.0418,-6.0387,-6.0374,-6.0342,-6.0314,-6.0304,-6.0292,-6.0263,-6.0245,-6.0223,-6.0202,-6.016,-6.0135,-6.0131,-6.0113,-6.0126,-6.0124,-6.0119,-6.006,-6.0059,-6.014,-6.014,-6.014,-6.014,-6.014,-6.014,-6.0495,-6.0494,-6.0469,-6.0455,-6.043,-6.0416,-6.0402,-6.0382,-6.0359,-6.0337,-6.0319,-6.0293,-6.0258,-6.0229,-6.0207,-6.0195,-6.0187,-6.0205,-6.0187,-6.0133,-6.0123,-6.0114,-6.0113,-6.0204,-6.0204,-6.0246,-6.0246,-6.0247]}]]